TimeEST,TemperatureF,Dew PointF,Humidity,Sea Level PressureIn,VisibilityMPH,Wind Direction,Wind SpeedMPH,Gust SpeedMPH,PrecipitationIn,Events,Conditions,WindDirDegrees,DateUTC
12:53 AM,39.9,30.0,68,30.00,10.0,West,6.9,-,N/A,,Clear,280,2013-03-03 05:53:00
1:53 AM,39.9,28.0,63,29.99,10.0,WNW,9.2,-,N/A,,Clear,290,2013-03-03 06:53:00
2:53 AM,39.0,28.0,65,29.99,10.0,WNW,6.9,-,N/A,,Clear,290,2013-03-03 07:53:00
3:53 AM,37.9,27.0,65,29.99,10.0,WNW,6.9,-,N/A,,Clear,290,2013-03-03 08:53:00
4:53 AM,37.9,28.0,68,29.99,10.0,West,6.9,-,N/A,,Clear,280,2013-03-03 09:53:00
5:53 AM,37.0,28.0,70,30.01,10.0,West,8.1,-,N/A,,Clear,280,2013-03-03 10:53:00
6:53 AM,37.4,26.6,65,30.01,10.0,West,11.5,21.9,N/A,,Clear,280,2013-03-03 11:53:00
7:53 AM,37.9,27.0,65,30.03,10.0,WNW,15.0,19.6,N/A,,Clear,300,2013-03-03 12:53:00
8:53 AM,39.9,26.1,58,30.04,10.0,WNW,12.7,20.7,N/A,,Clear,290,2013-03-03 13:53:00
9:53 AM,42.1,24.1,49,30.04,10.0,WNW,18.4,25.3,N/A,,Clear,290,2013-03-03 14:53:00
10:53 AM,45.0,21.9,40,30.04,10.0,West,15.0,23.0,N/A,,Partly Cloudy,270,2013-03-03 15:53:00
11:53 AM,46.0,21.9,39,30.03,10.0,West,12.7,20.7,N/A,,Mostly Cloudy,260,2013-03-03 16:53:00
12:53 PM,43.0,24.1,47,30.04,10.0,West,12.7,28.8,N/A,,Overcast,280,2013-03-03 17:53:00
1:53 PM,42.1,25.0,51,30.02,10.0,WNW,15.0,23.0,N/A,,Overcast,290,2013-03-03 18:53:00
2:53 PM,45.0,24.1,44,30.00,10.0,West,15.0,23.0,N/A,,Overcast,280,2013-03-03 19:53:00
3:53 PM,44.1,24.1,45,30.01,10.0,WNW,12.7,19.6,N/A,,Overcast,290,2013-03-03 20:53:00
4:53 PM,42.1,23.0,47,30.02,10.0,NW,11.5,18.4,N/A,,Overcast,310,2013-03-03 21:53:00
5:53 PM,42.1,23.0,47,30.04,10.0,WNW,10.4,20.7,N/A,,Mostly Cloudy,300,2013-03-03 22:53:00
6:53 PM,41.0,24.1,51,30.06,10.0,NW,3.5,-,N/A,,Partly Cloudy,310,2013-03-03 23:53:00
7:53 PM,39.0,24.1,55,30.08,10.0,WNW,4.6,-,N/A,,Clear,290,2013-03-04 00:53:00
8:53 PM,37.9,25.0,60,30.11,10.0,Calm,Calm,-,N/A,,Clear,0,2013-03-04 01:53:00
9:53 PM,37.0,26.1,65,30.12,10.0,West,3.5,-,N/A,,Clear,260,2013-03-04 02:53:00
10:53 PM,37.0,27.0,67,30.12,10.0,West,5.8,-,N/A,,Clear,260,2013-03-04 03:53:00
11:53 PM,37.0,27.0,67,30.12,10.0,WSW,6.9,-,N/A,,Clear,250,2013-03-04 04:53:00